sat.trackr.live / text

‹ back to catalog

ONEWEB-0395

NORAD 50475 · 2021-132G

PAYLOAD ACTIVE UNKNOWN

§ Identity

Operator
Country
UK
Launch date
2021-12-27
Launch site
TYMSC
Launch vehicle
Mass (kg)
RCS (m²)

Purposes: comms

External: N2YO · Heavens-Above · Gunter

§ Orbital elements

Epoch: 2026-05-25T03:00:36.681984Z

Period
109.81 min
Inclination
87.8904°
Eccentricity
0.0001793
Mean motion
13.11414547 rev/d
Perigee alt
1,216.3 km
Apogee alt
1,219.1 km
Semi-major
7,595.8 km
B*
1.2601e-3
RAAN
25.6567°
Arg perigee
89.7018°
Mean anomaly
270.4315°
Rev number
21,269

§ Raw data

ONEWEB-03951 50475U 21132G   26145.12542456  .00000459  00000+0  12601-2 0  99962 50475  87.8904  25.6567 0001793  89.7018 270.4315 13.11414547212696

JSON: /api/v1/satellites/50475 · /tle

For live sub-satellite position, see the globe view (requires WebGL).

§ Visibility from observer

Set your observer location to see the next 7 days of passes ≥ 10°. The values pass through the URL so the page stays shareable.

No JS? Fill the form by hand. The geolocation button needs JavaScript.